iso_date,epoch_date,Year,Hour,Min,DOY,POS_DOY,Lat,Lon,BP,Ts,Ta,has_bp,has_ts,has_ta,BuoyID,Buoy_Type,Buoy_Owner,Logistics,Hemisphere
2016-09-18T12:00:00Z,1474200000,2016,12,0,262.5,262.5,86.71538,61.48217,995.8,-999.00,-999.0,yes,no,no,300025060205330,IMB,AWI-USIABP,unknown,North
2016-09-18T13:00:28Z,1474203629,2016,13,0,262.542,262.542,86.72135,61.62593,995.9,-999.00,-999.0,yes,no,no,300025060205330,IMB,AWI-USIABP,unknown,North
2016-09-18T13:59:31Z,1474207171,2016,14,0,262.583,262.583,86.73033,61.62108,996.4,-999.00,-999.0,yes,no,no,300025060205330,IMB,AWI-USIABP,unknown,North
2016-09-18T16:00:28Z,1474214429,2016,16,0,262.667,262.667,86.70786,61.34444,996.4,-999.00,-999.0,yes,no,no,300025060205330,IMB,AWI-USIABP,unknown,North
2016-09-18T16:59:31Z,1474217971,2016,17,0,262.708,262.708,86.70875,61.44952,996.5,-999.00,-999.0,yes,no,no,300025060205330,IMB,AWI-USIABP,unknown,North
2016-09-18T18:00:00Z,1474221600,2016,18,0,262.75,262.75,86.7104,61.54894,996.1,-999.00,-999.0,yes,no,no,300025060205330,IMB,AWI-USIABP,unknown,North
2016-09-18T19:59:31Z,1474228771,2016,20,0,262.833,262.833,86.7109,61.3466,995.5,-999.00,-999.0,yes,no,no,300025060205330,IMB,AWI-USIABP,unknown,North
2016-09-18T21:00:00Z,1474232400,2016,21,0,262.875,262.875,86.70795,61.32103,994.8,-999.00,-999.0,yes,no,no,300025060205330,IMB,AWI-USIABP,unknown,North
2016-09-18T22:00:28Z,1474236029,2016,22,0,262.917,262.917,86.71286,61.32724,994.3,-999.00,-999.0,yes,no,no,300025060205330,IMB,AWI-USIABP,unknown,North
2016-09-18T22:59:31Z,1474239571,2016,23,0,262.958,262.958,86.7958,61.56634,993.5,-999.00,-999.0,yes,no,no,300025060205330,IMB,AWI-USIABP,unknown,North
2016-09-19T01:00:28Z,1474246829,2016,1,0,263.042,263.042,86.84784,60.9676,991.4,-999.00,-999.0,yes,no,no,300025060205330,IMB,AWI-USIABP,unknown,North
2016-09-19T03:00:00Z,1474254000,2016,3,0,263.125,263.125,86.79879,61.27102,989.4,-999.00,-999.0,yes,no,no,300025060205330,IMB,AWI-USIABP,unknown,North
2016-09-19T04:00:28Z,1474257629,2016,4,0,263.167,263.167,86.81372,61.64176,988.6,-999.00,-999.0,yes,no,no,300025060205330,IMB,AWI-USIABP,unknown,North
2016-09-19T04:59:31Z,1474261171,2016,5,0,263.208,263.208,86.81828,61.70161,987.5,-999.00,-999.0,yes,no,no,300025060205330,IMB,AWI-USIABP,unknown,North
2016-09-19T06:00:00Z,1474264800,2016,6,0,263.25,263.25,86.82248,61.75421,987.0,-999.00,-999.0,yes,no,no,300025060205330,IMB,AWI-USIABP,unknown,North
2016-09-19T07:59:31Z,1474271971,2016,8,0,263.333,263.333,86.82806,61.84809,985.4,-999.00,-999.0,yes,no,no,300025060205330,IMB,AWI-USIABP,unknown,North
2016-09-19T10:00:28Z,1474279229,2016,10,0,263.417,263.417,86.82992,61.88535,984.3,-999.00,-999.0,yes,no,no,300025060205330,IMB,AWI-USIABP,unknown,North
2016-09-19T10:59:31Z,1474282771,2016,11,0,263.458,263.458,86.82927,61.87515,984.0,-999.00,-999.0,yes,no,no,300025060205330,IMB,AWI-USIABP,unknown,North
2016-09-19T12:00:00Z,1474286400,2016,12,0,263.5,263.5,86.82809,61.84694,983.7,-999.00,-999.0,yes,no,no,300025060205330,IMB,AWI-USIABP,unknown,North
2016-09-19T13:00:28Z,1474290029,2016,13,0,263.542,263.542,86.82774,62.08512,983.0,-999.00,-999.0,yes,no,no,300025060205330,IMB,AWI-USIABP,unknown,North
2016-09-19T13:59:31Z,1474293571,2016,14,0,263.583,263.583,86.82458,62.02782,983.0,-999.00,-999.0,yes,no,no,300025060205330,IMB,AWI-USIABP,unknown,North
2016-09-19T15:00:00Z,1474297200,2016,15,0,263.625,263.625,86.82282,61.83808,983.2,-999.00,-999.0,yes,no,no,300025060205330,IMB,AWI-USIABP,unknown,North
2016-09-19T16:00:28Z,1474300829,2016,16,0,263.667,263.667,86.81432,61.85813,983.7,-999.00,-999.0,yes,no,no,300025060205330,IMB,AWI-USIABP,unknown,North
2016-09-19T16:59:31Z,1474304371,2016,17,0,263.708,263.708,86.80365,61.90426,984.4,-999.00,-999.0,yes,no,no,300025060205330,IMB,AWI-USIABP,unknown,North
2016-09-19T18:00:00Z,1474308000,2016,18,0,263.75,263.75,86.79286,61.72487,985.5,-999.00,-999.0,yes,no,no,300025060205330,IMB,AWI-USIABP,unknown,North
2016-09-19T19:00:28Z,1474311629,2016,19,0,263.792,263.792,86.71216,61.34504,986.2,-999.00,-999.0,yes,no,no,300025060205330,IMB,AWI-USIABP,unknown,North
2016-09-19T19:59:31Z,1474315171,2016,20,0,263.833,263.833,86.70071,61.27249,987.1,-999.00,-999.0,yes,no,no,300025060205330,IMB,AWI-USIABP,unknown,North
2016-09-19T21:00:00Z,1474318800,2016,21,0,263.875,263.875,86.71169,61.33977,988.1,-999.00,-999.0,yes,no,no,300025060205330,IMB,AWI-USIABP,unknown,North
2016-09-19T22:00:28Z,1474322429,2016,22,0,263.917,263.917,86.71135,61.32715,988.9,-999.00,-999.0,yes,no,no,300025060205330,IMB,AWI-USIABP,unknown,North
2016-09-19T22:59:31Z,1474325971,2016,23,0,263.958,263.958,86.71045,61.30242,990.4,-999.00,-999.0,yes,no,no,300025060205330,IMB,AWI-USIABP,unknown,North
2016-09-20T01:00:28Z,1474333229,2016,1,0,264.042,264.042,86.69274,60.7734,992.3,-999.00,-999.0,yes,no,no,300025060205330,IMB,AWI-USIABP,unknown,North
2016-09-20T03:00:00Z,1474340400,2016,3,0,264.125,264.125,86.6866,60.52143,994.2,-999.00,-999.0,yes,no,no,300025060205330,IMB,AWI-USIABP,unknown,North
2016-09-20T06:00:00Z,1474351200,2016,6,0,264.25,264.25,86.6637,60.40947,996.8,-999.00,-999.0,yes,no,no,300025060205330,IMB,AWI-USIABP,unknown,North
2016-09-20T09:00:00Z,1474362000,2016,9,0,264.375,264.375,86.72853,61.16544,999.0,-999.00,-999.0,yes,no,no,300025060205330,IMB,AWI-USIABP,unknown,North
2016-09-20T10:00:28Z,1474365629,2016,10,0,264.417,264.417,86.72036,61.15968,999.6,-999.00,-999.0,yes,no,no,300025060205330,IMB,AWI-USIABP,unknown,North
2016-09-20T10:59:31Z,1474369171,2016,11,0,264.458,264.458,86.71212,61.14986,1000.4,-999.00,-999.0,yes,no,no,300025060205330,IMB,AWI-USIABP,unknown,North
2016-09-20T13:00:28Z,1474376429,2016,13,0,264.542,264.542,86.69771,61.09404,1001.8,-999.00,-999.0,yes,no,no,300025060205330,IMB,AWI-USIABP,unknown,North
2016-09-20T13:59:31Z,1474379971,2016,14,0,264.583,264.583,86.6907,61.07535,1002.3,-999.00,-999.0,yes,no,no,300025060205330,IMB,AWI-USIABP,unknown,North
2016-09-20T15:00:00Z,1474383600,2016,15,0,264.625,264.625,86.68263,61.06053,1003.0,-999.00,-999.0,yes,no,no,300025060205330,IMB,AWI-USIABP,unknown,North
2016-09-20T19:00:28Z,1474398029,2016,19,0,264.792,264.792,86.90123,60.17175,1006.2,-999.00,-999.0,yes,no,no,300025060205330,IMB,AWI-USIABP,unknown,North
2016-09-20T19:59:31Z,1474401571,2016,20,0,264.833,264.833,86.98327,59.5846,1007.0,-999.00,-999.0,yes,no,no,300025060205330,IMB,AWI-USIABP,unknown,North
2016-09-20T21:00:00Z,1474405200,2016,21,0,264.875,264.875,86.99908,58.17339,1007.9,-999.00,-999.0,yes,no,no,300025060205330,IMB,AWI-USIABP,unknown,North
2016-09-20T22:00:28Z,1474408829,2016,22,0,264.917,264.917,86.99563,58.1619,1008.5,-999.00,-999.0,yes,no,no,300025060205330,IMB,AWI-USIABP,unknown,North
2016-09-20T22:59:31Z,1474412371,2016,23,0,264.958,264.958,86.99253,58.15579,1009.0,-999.00,-999.0,yes,no,no,300025060205330,IMB,AWI-USIABP,unknown,North
2016-09-21T00:00:00Z,1474416000,2016,0,0,265.0,265.0,86.98919,58.17441,1009.6,-999.00,-999.0,yes,no,no,300025060205330,IMB,AWI-USIABP,unknown,North
2016-09-21T01:59:31Z,1474423171,2016,2,0,265.083,265.083,86.98454,58.21228,1010.3,-999.00,-999.0,yes,no,no,300025060205330,IMB,AWI-USIABP,unknown,North
2016-09-21T03:00:00Z,1474426800,2016,3,0,265.125,265.125,86.98166,58.24166,1010.5,-999.00,-999.0,yes,no,no,300025060205330,IMB,AWI-USIABP,unknown,North
2016-09-21T04:00:28Z,1474430429,2016,4,0,265.167,265.167,86.97954,58.26223,1010.6,-999.00,-999.0,yes,no,no,300025060205330,IMB,AWI-USIABP,unknown,North
2016-09-21T06:00:00Z,1474437600,2016,6,0,265.25,265.25,87.01366,58.27579,1011.0,-999.00,-999.0,yes,no,no,300025060205330,IMB,AWI-USIABP,unknown,North
2016-09-21T07:59:31Z,1474444771,2016,8,0,265.333,265.333,87.01195,58.33138,1011.4,-999.00,-999.0,yes,no,no,300025060205330,IMB,AWI-USIABP,unknown,North
2016-09-21T10:59:31Z,1474455571,2016,11,0,265.458,265.458,86.99316,57.78849,1010.8,-999.00,-999.0,yes,no,no,300025060205330,IMB,AWI-USIABP,unknown,North
2016-09-21T12:00:00Z,1474459200,2016,12,0,265.5,265.5,86.99375,57.87251,1010.5,-999.00,-999.0,yes,no,no,300025060205330,IMB,AWI-USIABP,unknown,North
2016-09-21T13:00:28Z,1474462829,2016,13,0,265.542,265.542,86.99412,57.9608,1010.2,-999.00,-999.0,yes,no,no,300025060205330,IMB,AWI-USIABP,unknown,North
2016-09-21T13:59:31Z,1474466371,2016,14,0,265.583,265.583,86.99475,58.0536,1009.6,-999.00,-999.0,yes,no,no,300025060205330,IMB,AWI-USIABP,unknown,North
2016-09-21T16:00:28Z,1474473629,2016,16,0,265.667,265.667,86.9919,58.20568,1008.8,-999.00,-999.0,yes,no,no,300025060205330,IMB,AWI-USIABP,unknown,North
2016-09-21T19:59:31Z,1474487971,2016,20,0,265.833,265.833,86.9805,58.32344,1008.1,-999.00,-999.0,yes,no,no,300025060205330,IMB,AWI-USIABP,unknown,North
2016-09-21T21:00:00Z,1474491600,2016,21,0,265.875,265.875,86.97906,58.31149,1007.7,-999.00,-999.0,yes,no,no,300025060205330,IMB,AWI-USIABP,unknown,North
2016-09-21T22:59:31Z,1474498771,2016,23,0,265.958,265.958,86.97935,58.29271,1007.2,-999.00,-999.0,yes,no,no,300025060205330,IMB,AWI-USIABP,unknown,North
2016-09-22T01:00:28Z,1474506029,2016,1,0,266.042,266.042,86.98248,58.30916,1006.1,-999.00,-999.0,yes,no,no,300025060205330,IMB,AWI-USIABP,unknown,North
2016-09-22T03:00:00Z,1474513200,2016,3,0,266.125,266.125,86.98487,58.41625,1005.0,-999.00,-999.0,yes,no,no,300025060205330,IMB,AWI-USIABP,unknown,North
2016-09-22T06:00:00Z,1474524000,2016,6,0,266.25,266.25,86.98435,58.65329,1004.3,-999.00,-999.0,yes,no,no,300025060205330,IMB,AWI-USIABP,unknown,North
2016-09-22T07:00:28Z,1474527629,2016,7,0,266.292,266.292,86.98399,58.75468,1003.8,-999.00,-999.0,yes,no,no,300025060205330,IMB,AWI-USIABP,unknown,North
2016-09-22T07:59:31Z,1474531171,2016,8,0,266.333,266.333,86.9846,58.84509,1003.5,-999.00,-999.0,yes,no,no,300025060205330,IMB,AWI-USIABP,unknown,North
2016-09-22T10:00:28Z,1474538429,2016,10,0,266.417,266.417,86.98698,59.0587,1002.6,-999.00,-999.0,yes,no,no,300025060205330,IMB,AWI-USIABP,unknown,North
2016-09-22T12:00:00Z,1474545600,2016,12,0,266.5,266.5,86.9883,59.29925,1002.2,-999.00,-999.0,yes,no,no,300025060205330,IMB,AWI-USIABP,unknown,North
2016-09-22T15:00:00Z,1474556400,2016,15,0,266.625,266.625,86.9775,59.63605,1002.0,-999.00,-999.0,yes,no,no,300025060205330,IMB,AWI-USIABP,unknown,North
2016-09-22T16:00:28Z,1474560029,2016,16,0,266.667,266.667,86.97181,59.70859,1002.0,-999.00,-999.0,yes,no,no,300025060205330,IMB,AWI-USIABP,unknown,North
2016-09-22T19:00:28Z,1474570829,2016,19,0,266.792,266.792,86.95907,59.77758,1002.6,-999.00,-999.0,yes,no,no,300025060205330,IMB,AWI-USIABP,unknown,North
2016-09-22T21:00:00Z,1474578000,2016,21,0,266.875,266.875,86.95713,59.80699,1003.4,-999.00,-999.0,yes,no,no,300025060205330,IMB,AWI-USIABP,unknown,North
2016-09-23T00:00:00Z,1474588800,2016,0,0,267.0,267.0,86.9582,59.87327,1003.6,-999.00,-999.0,yes,no,no,300025060205330,IMB,AWI-USIABP,unknown,North
2016-09-23T01:00:28Z,1474592429,2016,1,0,267.042,267.042,86.95723,59.90637,1003.4,-999.00,-999.0,yes,no,no,300025060205330,IMB,AWI-USIABP,unknown,North
2016-09-23T04:00:28Z,1474603229,2016,4,0,267.167,267.167,86.95647,59.99312,1002.5,-999.00,-999.0,yes,no,no,300025060205330,IMB,AWI-USIABP,unknown,North
2016-09-23T07:00:28Z,1474614029,2016,7,0,267.292,267.292,86.96199,60.15008,1001.4,-999.00,-999.0,yes,no,no,300025060205330,IMB,AWI-USIABP,unknown,North
2016-09-23T09:00:00Z,1474621200,2016,9,0,267.375,267.375,86.96972,60.28737,1000.6,-999.00,-999.0,yes,no,no,300025060205330,IMB,AWI-USIABP,unknown,North
2016-09-23T10:59:31Z,1474628371,2016,11,0,267.458,267.458,86.97128,60.47701,1000.1,-999.00,-999.0,yes,no,no,300025060205330,IMB,AWI-USIABP,unknown,North
2016-09-23T13:00:28Z,1474635629,2016,13,0,267.542,267.542,86.96503,60.56342,999.9,-999.00,-999.0,yes,no,no,300025060205330,IMB,AWI-USIABP,unknown,North
2016-09-23T13:59:31Z,1474639171,2016,14,0,267.583,267.583,86.95957,60.56671,1000.3,-999.00,-999.0,yes,no,no,300025060205330,IMB,AWI-USIABP,unknown,North
2016-09-23T15:00:00Z,1474642800,2016,15,0,267.625,267.625,86.9533,60.55409,1000.8,-999.00,-999.0,yes,no,no,300025060205330,IMB,AWI-USIABP,unknown,North
2016-09-23T18:00:00Z,1474653600,2016,18,0,267.75,267.75,86.94099,60.40304,1003.7,-999.00,-999.0,yes,no,no,300025060205330,IMB,AWI-USIABP,unknown,North
2016-09-23T19:00:28Z,1474657229,2016,19,0,267.792,267.792,86.93976,60.33788,1004.7,-999.00,-999.0,yes,no,no,300025060205330,IMB,AWI-USIABP,unknown,North
2016-09-23T19:59:31Z,1474660771,2016,20,0,267.833,267.833,86.93922,60.28956,1005.5,-999.00,-999.0,yes,no,no,300025060205330,IMB,AWI-USIABP,unknown,North
2016-09-23T21:00:00Z,1474664400,2016,21,0,267.875,267.875,86.93898,60.27292,1006.2,-999.00,-999.0,yes,no,no,300025060205330,IMB,AWI-USIABP,unknown,North
2016-09-23T22:42:14Z,1474670534,2016,22,42,267.946,267.946,86.93695,60.33823,1006.8,-999.00,-999.0,yes,no,no,300025060205330,IMB,AWI-USIABP,unknown,North
2016-09-24T01:00:28Z,1474678829,2016,1,0,268.042,268.042,86.92617,60.5277,1006.4,-999.00,-999.0,yes,no,no,300025060205330,IMB,AWI-USIABP,unknown,North
2016-09-24T03:00:00Z,1474686000,2016,3,0,268.125,268.125,86.91698,60.71326,1004.1,-999.00,-999.0,yes,no,no,300025060205330,IMB,AWI-USIABP,unknown,North
2016-09-24T04:00:28Z,1474689629,2016,4,0,268.167,268.167,86.91301,60.85068,1003.0,-999.00,-999.0,yes,no,no,300025060205330,IMB,AWI-USIABP,unknown,North
2016-09-24T07:00:28Z,1474700429,2016,7,0,268.292,268.292,86.8993,61.35806,999.5,-999.00,-999.0,yes,no,no,300025060205330,IMB,AWI-USIABP,unknown,North
2016-09-24T09:00:00Z,1474707600,2016,9,0,268.375,268.375,86.87895,61.70819,998.7,-999.00,-999.0,yes,no,no,300025060205330,IMB,AWI-USIABP,unknown,North
2016-09-24T10:59:31Z,1474714771,2016,11,0,268.458,268.458,86.85365,61.90044,998.2,-999.00,-999.0,yes,no,no,300025060205330,IMB,AWI-USIABP,unknown,North
2016-09-24T11:02:24Z,1474714944,2016,11,3,268.46,268.46,86.85353,61.90093,998.1,-999.00,-999.0,yes,no,no,300025060205330,IMB,AWI-USIABP,unknown,North
2016-09-24T12:00:00Z,1474718400,2016,12,0,268.5,268.5,86.84167,61.95196,997.9,-999.00,-999.0,yes,no,no,300025060205330,IMB,AWI-USIABP,unknown,North
2016-09-24T13:00:28Z,1474722029,2016,13,0,268.542,268.542,86.83158,61.96869,997.4,-999.00,-999.0,yes,no,no,300025060205330,IMB,AWI-USIABP,unknown,North
2016-09-24T13:59:31Z,1474725571,2016,14,0,268.583,268.583,86.82303,61.96063,997.3,-999.00,-999.0,yes,no,no,300025060205330,IMB,AWI-USIABP,unknown,North
2016-09-24T15:00:00Z,1474729200,2016,15,0,268.625,268.625,86.81673,61.9326,997.4,-999.00,-999.0,yes,no,no,300025060205330,IMB,AWI-USIABP,unknown,North
2016-09-24T16:00:28Z,1474732829,2016,16,0,268.667,268.667,86.8122,61.89817,998.0,-999.00,-999.0,yes,no,no,300025060205330,IMB,AWI-USIABP,unknown,North
2016-09-24T16:59:31Z,1474736371,2016,17,0,268.708,268.708,86.80885,61.86151,998.5,-999.00,-999.0,yes,no,no,300025060205330,IMB,AWI-USIABP,unknown,North
2016-09-24T18:00:00Z,1474740000,2016,18,0,268.75,268.75,86.80585,61.83432,999.5,-999.00,-999.0,yes,no,no,300025060205330,IMB,AWI-USIABP,unknown,North
2016-09-24T19:00:28Z,1474743629,2016,19,0,268.792,268.792,86.80267,61.80882,1000.1,-999.00,-999.0,yes,no,no,300025060205330,IMB,AWI-USIABP,unknown,North
2016-09-24T19:59:31Z,1474747171,2016,20,0,268.833,268.833,86.79932,61.78159,1001.3,-999.00,-999.0,yes,no,no,300025060205330,IMB,AWI-USIABP,unknown,North
2016-09-24T21:00:00Z,1474750800,2016,21,0,268.875,268.875,86.79619,61.74044,1002.5,-999.00,-999.0,yes,no,no,300025060205330,IMB,AWI-USIABP,unknown,North
2016-09-24T22:00:28Z,1474754429,2016,22,0,268.917,268.917,86.79347,61.69076,1003.5,-999.00,-999.0,yes,no,no,300025060205330,IMB,AWI-USIABP,unknown,North
2016-09-24T22:40:48Z,1474756848,2016,22,41,268.945,268.945,86.79344,61.68982,1004.0,-999.00,-999.0,yes,no,no,300025060205330,IMB,AWI-USIABP,unknown,North
2016-09-24T22:59:31Z,1474757971,2016,23,0,268.958,268.958,86.79149,61.63123,1004.3,-999.00,-999.0,yes,no,no,300025060205330,IMB,AWI-USIABP,unknown,North
2016-09-25T00:00:00Z,1474761600,2016,0,0,269.0,269.0,86.7901,61.5562,1004.7,-999.00,-999.0,yes,no,no,300025060205330,IMB,AWI-USIABP,unknown,North
2016-09-25T01:00:28Z,1474765229,2016,1,0,269.042,269.042,86.78982,61.47212,1005.5,-999.00,-999.0,yes,no,no,300025060205330,IMB,AWI-USIABP,unknown,North
2016-09-25T01:59:31Z,1474768771,2016,2,0,269.083,269.083,86.79122,61.38902,1006.2,-999.00,-999.0,yes,no,no,300025060205330,IMB,AWI-USIABP,unknown,North
2016-09-25T03:00:00Z,1474772400,2016,3,0,269.125,269.125,86.79439,61.31849,1006.8,-999.00,-999.0,yes,no,no,300025060205330,IMB,AWI-USIABP,unknown,North
2016-09-25T04:00:28Z,1474776029,2016,4,0,269.167,269.167,86.79836,61.27619,1007.1,-999.00,-999.0,yes,no,no,300025060205330,IMB,AWI-USIABP,unknown,North
2016-09-25T04:59:31Z,1474779571,2016,5,0,269.208,269.208,86.80227,61.25966,1007.4,-999.00,-999.0,yes,no,no,300025060205330,IMB,AWI-USIABP,unknown,North
2016-09-25T06:00:00Z,1474783200,2016,6,0,269.25,269.25,86.80727,61.27138,1007.3,-999.00,-999.0,yes,no,no,300025060205330,IMB,AWI-USIABP,unknown,North
2016-09-25T07:00:28Z,1474786829,2016,7,0,269.292,269.292,86.81163,61.31011,1007.3,-999.00,-999.0,yes,no,no,300025060205330,IMB,AWI-USIABP,unknown,North
2016-09-25T07:59:31Z,1474790371,2016,8,0,269.333,269.333,86.81602,61.37669,1007.1,-999.00,-999.0,yes,no,no,300025060205330,IMB,AWI-USIABP,unknown,North
2016-09-25T09:00:00Z,1474794000,2016,9,0,269.375,269.375,86.81987,61.45923,1007.0,-999.00,-999.0,yes,no,no,300025060205330,IMB,AWI-USIABP,unknown,North
2016-09-25T10:00:28Z,1474797629,2016,10,0,269.417,269.417,86.82302,61.55349,1006.6,-999.00,-999.0,yes,no,no,300025060205330,IMB,AWI-USIABP,unknown,North
2016-09-25T10:59:31Z,1474801171,2016,11,0,269.458,269.458,86.82558,61.65301,1006.2,-999.00,-999.0,yes,no,no,300025060205330,IMB,AWI-USIABP,unknown,North
2016-09-25T12:00:00Z,1474804800,2016,12,0,269.5,269.5,86.82785,61.74087,1005.5,-999.00,-999.0,yes,no,no,300025060205330,IMB,AWI-USIABP,unknown,North
2016-09-25T13:00:28Z,1474808429,2016,13,0,269.542,269.542,86.83022,61.82187,1004.9,-999.00,-999.0,yes,no,no,300025060205330,IMB,AWI-USIABP,unknown,North
2016-09-25T13:59:31Z,1474811971,2016,14,0,269.583,269.583,86.83215,61.88525,1004.1,-999.00,-999.0,yes,no,no,300025060205330,IMB,AWI-USIABP,unknown,North
2016-09-25T15:00:00Z,1474815600,2016,15,0,269.625,269.625,86.83442,61.94029,1003.4,-999.00,-999.0,yes,no,no,300025060205330,IMB,AWI-USIABP,unknown,North
2016-09-25T16:00:28Z,1474819229,2016,16,0,269.667,269.667,86.83788,62.00567,1002.3,-999.00,-999.0,yes,no,no,300025060205330,IMB,AWI-USIABP,unknown,North
2016-09-25T16:59:31Z,1474822771,2016,17,0,269.708,269.708,86.8425,62.10724,1001.7,-999.00,-999.0,yes,no,no,300025060205330,IMB,AWI-USIABP,unknown,North
2016-09-25T18:00:00Z,1474826400,2016,18,0,269.75,269.75,86.84439,62.23042,1002.0,-999.00,-999.0,yes,no,no,300025060205330,IMB,AWI-USIABP,unknown,North
2016-09-25T19:00:28Z,1474830029,2016,19,0,269.792,269.792,86.84369,62.34523,1001.4,-999.00,-999.0,yes,no,no,300025060205330,IMB,AWI-USIABP,unknown,North
2016-09-25T19:59:31Z,1474833571,2016,20,0,269.833,269.833,86.84128,62.43923,1001.2,-999.00,-999.0,yes,no,no,300025060205330,IMB,AWI-USIABP,unknown,North
2016-09-25T21:00:00Z,1474837200,2016,21,0,269.875,269.875,86.83792,62.50639,1000.8,-999.00,-999.0,yes,no,no,300025060205330,IMB,AWI-USIABP,unknown,North
2016-09-25T22:00:28Z,1474840829,2016,22,0,269.917,269.917,86.83419,62.54162,1000.8,-999.00,-999.0,yes,no,no,300025060205330,IMB,AWI-USIABP,unknown,North
2016-09-25T22:59:31Z,1474844371,2016,23,0,269.958,269.958,86.83025,62.54509,1000.8,-999.00,-999.0,yes,no,no,300025060205330,IMB,AWI-USIABP,unknown,North
2016-09-26T00:00:00Z,1474848000,2016,0,0,270.0,270.0,86.82685,62.51854,1001.1,-999.00,-999.0,yes,no,no,300025060205330,IMB,AWI-USIABP,unknown,North
2016-09-26T01:00:28Z,1474851629,2016,1,0,270.042,270.042,86.82471,62.48161,1000.9,-999.00,-999.0,yes,no,no,300025060205330,IMB,AWI-USIABP,unknown,North
2016-09-26T01:59:31Z,1474855171,2016,2,0,270.083,270.083,86.82396,62.4412,1001.0,-999.00,-999.0,yes,no,no,300025060205330,IMB,AWI-USIABP,unknown,North
2016-09-26T03:00:00Z,1474858800,2016,3,0,270.125,270.125,86.82376,62.41781,1001.2,-999.00,-999.0,yes,no,no,300025060205330,IMB,AWI-USIABP,unknown,North
2016-09-26T04:00:28Z,1474862429,2016,4,0,270.167,270.167,86.82329,62.40964,1001.5,-999.00,-999.0,yes,no,no,300025060205330,IMB,AWI-USIABP,unknown,North
2016-09-26T04:59:31Z,1474865971,2016,5,0,270.208,270.208,86.82233,62.41652,1001.8,-999.00,-999.0,yes,no,no,300025060205330,IMB,AWI-USIABP,unknown,North
2016-09-26T06:00:00Z,1474869600,2016,6,0,270.25,270.25,86.81997,62.42863,1002.0,-999.00,-999.0,yes,no,no,300025060205330,IMB,AWI-USIABP,unknown,North
2016-09-26T07:00:28Z,1474873229,2016,7,0,270.292,270.292,86.81681,62.4397,1002.2,-999.00,-999.0,yes,no,no,300025060205330,IMB,AWI-USIABP,unknown,North
2016-09-26T07:59:31Z,1474876771,2016,8,0,270.333,270.333,86.81351,62.45018,1002.8,-999.00,-999.0,yes,no,no,300025060205330,IMB,AWI-USIABP,unknown,North
2016-09-26T09:00:00Z,1474880400,2016,9,0,270.375,270.375,86.80952,62.45571,1003.0,-999.00,-999.0,yes,no,no,300025060205330,IMB,AWI-USIABP,unknown,North
2016-09-26T10:00:28Z,1474884029,2016,10,0,270.417,270.417,86.80561,62.44917,1003.3,-999.00,-999.0,yes,no,no,300025060205330,IMB,AWI-USIABP,unknown,North
2016-09-26T10:59:31Z,1474887571,2016,11,0,270.458,270.458,86.80249,62.42754,1003.4,-999.00,-999.0,yes,no,no,300025060205330,IMB,AWI-USIABP,unknown,North
2016-09-26T12:00:00Z,1474891200,2016,12,0,270.5,270.5,86.80071,62.40404,1003.3,-999.00,-999.0,yes,no,no,300025060205330,IMB,AWI-USIABP,unknown,North
2016-09-26T13:00:28Z,1474894829,2016,13,0,270.542,270.542,86.80041,62.38858,1003.2,-999.00,-999.0,yes,no,no,300025060205330,IMB,AWI-USIABP,unknown,North
2016-09-26T13:59:31Z,1474898371,2016,14,0,270.583,270.583,86.80085,62.38171,1003.0,-999.00,-999.0,yes,no,no,300025060205330,IMB,AWI-USIABP,unknown,North
2016-09-26T15:00:00Z,1474902000,2016,15,0,270.625,270.625,86.80147,62.39063,1003.0,-999.00,-999.0,yes,no,no,300025060205330,IMB,AWI-USIABP,unknown,North
2016-09-26T16:00:28Z,1474905629,2016,16,0,270.667,270.667,86.80198,62.41353,1003.2,-999.00,-999.0,yes,no,no,300025060205330,IMB,AWI-USIABP,unknown,North
2016-09-26T16:59:31Z,1474909171,2016,17,0,270.708,270.708,86.80171,62.44816,1003.2,-999.00,-999.0,yes,no,no,300025060205330,IMB,AWI-USIABP,unknown,North
2016-09-26T18:00:00Z,1474912800,2016,18,0,270.75,270.75,86.79985,62.48202,1003.1,-999.00,-999.0,yes,no,no,300025060205330,IMB,AWI-USIABP,unknown,North
2016-09-26T19:00:28Z,1474916429,2016,19,0,270.792,270.792,86.79676,62.51274,1003.1,-999.00,-999.0,yes,no,no,300025060205330,IMB,AWI-USIABP,unknown,North
2016-09-26T19:59:31Z,1474919971,2016,20,0,270.833,270.833,86.79224,62.53352,1003.4,-999.00,-999.0,yes,no,no,300025060205330,IMB,AWI-USIABP,unknown,North
2016-09-26T21:00:00Z,1474923600,2016,21,0,270.875,270.875,86.7876,62.53636,1003.7,-999.00,-999.0,yes,no,no,300025060205330,IMB,AWI-USIABP,unknown,North
2016-09-26T22:00:28Z,1474927229,2016,22,0,270.917,270.917,86.78282,62.51138,1003.5,-999.00,-999.0,yes,no,no,300025060205330,IMB,AWI-USIABP,unknown,North
2016-09-26T22:59:31Z,1474930771,2016,23,0,270.958,270.958,86.77986,62.47176,1003.8,-999.00,-999.0,yes,no,no,300025060205330,IMB,AWI-USIABP,unknown,North
2016-09-27T00:00:00Z,1474934400,2016,0,0,271.0,271.0,86.77835,62.42015,1003.6,-999.00,-999.0,yes,no,no,300025060205330,IMB,AWI-USIABP,unknown,North
2016-09-27T01:00:28Z,1474938029,2016,1,0,271.042,271.042,86.77883,62.37008,1003.2,-999.00,-999.0,yes,no,no,300025060205330,IMB,AWI-USIABP,unknown,North
2016-09-27T01:59:31Z,1474941571,2016,2,0,271.083,271.083,86.78087,62.34544,1003.1,-999.00,-999.0,yes,no,no,300025060205330,IMB,AWI-USIABP,unknown,North
2016-09-27T03:00:00Z,1474945200,2016,3,0,271.125,271.125,86.78451,62.38033,1003.0,-999.00,-999.0,yes,no,no,300025060205330,IMB,AWI-USIABP,unknown,North
2016-09-27T04:00:28Z,1474948829,2016,4,0,271.167,271.167,86.78861,62.46471,1002.7,-999.00,-999.0,yes,no,no,300025060205330,IMB,AWI-USIABP,unknown,North
2016-09-27T04:59:31Z,1474952371,2016,5,0,271.208,271.208,86.79167,62.53885,1002.0,-999.00,-999.0,yes,no,no,300025060205330,IMB,AWI-USIABP,unknown,North